TimeCDT,TemperatureF,Dew PointF,Humidity,Sea Level PressureIn,VisibilityMPH,Wind Direction,Wind SpeedMPH,Gust SpeedMPH,PrecipitationIn,Events,Conditions,WindDirDegrees,DateUTC
12:53 AM,28.0,19.9,72,30.42,10.0,North,11.5,-,N/A,,Overcast,350,2013-04-23 05:53:00
1:42 AM,26.6,17.6,69,30.31,10.0,North,11.5,-,N/A,,Partly Cloudy,360,2013-04-23 06:42:00
1:53 AM,27.0,18.0,69,30.39,10.0,North,13.8,19.6,N/A,,Scattered Clouds,350,2013-04-23 06:53:00
2:53 AM,26.1,18.0,71,30.38,10.0,North,11.5,-,N/A,,Clear,350,2013-04-23 07:53:00
3:53 AM,25.0,18.0,75,30.36,10.0,North,11.5,-,N/A,,Clear,10,2013-04-23 08:53:00
4:53 AM,24.8,17.6,74,30.27,10.0,North,11.5,-,N/A,,Partly Cloudy,350,2013-04-23 09:53:00
5:53 AM,25.0,18.0,75,30.36,10.0,North,8.1,-,N/A,,Clear,360,2013-04-23 10:53:00
6:53 AM,25.0,17.1,72,30.37,10.0,NNW,9.2,-,N/A,,Clear,340,2013-04-23 11:53:00
7:53 AM,26.1,18.0,71,30.36,10.0,NNW,8.1,-,N/A,,Clear,340,2013-04-23 12:53:00
8:53 AM,28.0,18.0,66,30.36,10.0,North,12.7,-,N/A,,Clear,360,2013-04-23 13:53:00
9:53 AM,32.0,17.1,54,30.36,10.0,NNW,13.8,-,N/A,,Partly Cloudy,340,2013-04-23 14:53:00
10:53 AM,30.9,16.0,54,30.36,10.0,NNW,12.7,-,N/A,,Mostly Cloudy,340,2013-04-23 15:53:00
11:53 AM,32.0,14.0,48,30.35,10.0,North,17.3,-,N/A,,Mostly Cloudy,360,2013-04-23 16:53:00
12:53 PM,35.1,15.1,44,30.31,10.0,North,17.3,21.9,N/A,,Scattered Clouds,350,2013-04-23 17:53:00
1:53 PM,37.4,14.0,38,30.21,10.0,NNW,16.1,25.3,N/A,,Partly Cloudy,330,2013-04-23 18:53:00
2:53 PM,37.9,15.1,39,30.27,10.0,North,9.2,19.6,N/A,,Scattered Clouds,360,2013-04-23 19:53:00
3:53 PM,39.9,16.0,38,30.24,10.0,NNW,11.5,23.0,N/A,,Partly Cloudy,330,2013-04-23 20:53:00
4:53 PM,42.1,15.1,34,30.22,10.0,NNW,15.0,24.2,N/A,,Partly Cloudy,340,2013-04-23 21:53:00
5:53 PM,43.0,15.1,32,30.21,10.0,NNW,9.2,19.6,N/A,,Mostly Cloudy,340,2013-04-23 22:53:00
6:53 PM,41.0,14.0,33,30.21,10.0,North,13.8,-,N/A,,Mostly Cloudy,360,2013-04-23 23:53:00
7:53 PM,39.0,15.1,38,30.21,10.0,North,9.2,-,N/A,,Scattered Clouds,350,2013-04-24 00:53:00
8:53 PM,30.0,16.0,56,30.25,10.0,NNE,8.1,-,N/A,,Clear,20,2013-04-24 01:53:00
9:53 PM,27.0,16.0,63,30.26,10.0,Calm,Calm,-,N/A,,Clear,0,2013-04-24 02:53:00
10:53 PM,25.0,17.1,72,30.27,10.0,Calm,Calm,-,N/A,,Clear,0,2013-04-24 03:53:00
11:53 PM,21.0,15.1,78,30.27,10.0,Calm,Calm,-,N/A,,Clear,0,2013-04-24 04:53:00